Flag for U.S.A. Weather past 2 weeks in New Haven, Connecticut, U.S.A.

Now
59 °F

Sunny.


Feels Like: 58 °F
Forecast: 46 / 64 °F
Wind: 7 mph from Northwest

Location: Tweed-New Haven Airport

Current Time: Oct 25, 2014 at 11:39:55 AM

Latest Report: Oct 25, 2014 at 10:53 AM


Visibility: 10 mi

Pressure: 29.80 "Hg

Humidity: 48%

Dew point: 39 °F

Location of New HavenLocation

Historic Weather in New Haven — Graph

°F

New Haven temperature yesterday

Maximum temperature yesterday: 58 °F (at 1:00 PM)
Minimum temperature yesterday: 50 °F (at 7:53 AM)
Average temperature yesterday: 54 °F

Past Weeks' High & Low Weather Summary

 TemperatureHumidityPressure
High78 °F (Oct 15, 11:53 AM)92% (Oct 12, 12:53 AM)30.35 "Hg (Oct 12, 12:53 AM)
Low40 °F (Oct 13, 2:53 AM)34% (Oct 19, 2:53 PM)29.54 "Hg (Oct 18, 3:53 PM)
Average59 °F73%29.93 "Hg
* Reported Oct 10 9:53 AM — Oct 25 9:53 AM, New Haven, Weather by CustomWeather, © 2014

Note: Actual official high and low records may vary slightly from our data, if they occured in-between our weather recording intervals... More about our weather records

Advertising

New Haven weather history for previous 24 hours

 ConditionsComfort  
Time TempWeatherWind HumidityBarometerVisibility
9:53 AM
Oct 25
56 °FSunny.5 mph62%29.82 "Hg10 mi
8:53 AM53 °FSunny.5 mph64%29.82 "Hg10 mi
7:53 AM51 °FPassing clouds.5 mph69%29.83 "Hg10 mi
6:53 AM51 °FPassing clouds.6 mph69%29.83 "Hg10 mi
5:53 AM47 °FClear.No wind74%29.83 "Hg10 mi
4:53 AM51 °FClear.No wind71%29.82 "Hg10 mi
3:53 AM51 °FClear.3 mph71%29.82 "Hg10 mi
2:53 AM52 °FClear.6 mph72%29.81 "Hg10 mi
1:53 AM53 °FClear.7 mph72%29.81 "Hg10 mi
12:53 AM52 °FClear.5 mph75%29.80 "Hg10 mi
11:53 PM
Oct 24
53 °FClear.6 mph77%29.80 "Hg10 mi
10:53 PM53 °FClear.No wind77%29.80 "Hg10 mi
9:53 PM54 °FClear.3 mph74%29.80 "Hg10 mi
8:53 PM55 °FPassing clouds.3 mph69%29.79 "Hg10 mi
7:53 PM55 °FPassing clouds.5 mph67%29.78 "Hg10 mi
6:53 PM57 °FOvercast.6 mph62%29.78 "Hg10 mi
5:53 PM57 °FOvercast.8 mph62%29.77 "Hg10 mi
4:53 PM57 °FPartly sunny.9 mph60%29.76 "Hg10 mi
3:53 PM57 °FPartly sunny.15 mph60%29.76 "Hg10 mi
2:53 PM57 °FOvercast.10 mph62%29.75 "Hg10 mi
1:53 PM57 °FOvercast.10 mph62%29.74 "Hg10 mi
1:00 PM58 °FOvercast.13 mph60%29.74 "Hg10 mi
12:00 PM57 °FMostly cloudy.14 mph62%29.76 "Hg10 mi
Weather by CustomWeather, © 2014

See weather overviewHow to use our weather pages